Weather in Devitsa

Russia / Lipetsk Oblast     51°59′26″N   39°47′48″E
temp.,
°C
wind,
m/s
gust,
m/s
humid.,
%
clouds,
%
prec.,
mm/h
press.,
hPa
HPBL,
m
7 may, fri
fri700:00+13ssw4974100 0.4 1009291
03:00+10nw4795100 1.4 1010404
06:00+8nw4895100 5.9 1011530
09:00+8n4784100 8.0 1013669
12:00+12nnw346599 0.1 10151357
15:00+15nne244679 0.2 10141967
18:00+14wnw2352100 0.0 1015210
21:00+9sse336928 0.0 101645
8 may, sat
sat800:00+7sse39785 0.0 1016182
03:00+7sse51275100 0.0 1016314
06:00+8sse51377100 0.0 1014421
09:00+13sse8146399 0.0 1012856
12:00+16s81362100 0.0 10101402
15:00+14s71576100 0.3 10081324
18:00+12ssw61391100 3.8 1008810
21:00+12ssw41096100 4.6 1007591
9 may, sun
sun900:00+10w5993100 1.3 1008567
03:00+6wsw5989100 2.0 1010716
06:00+5w51087100 0.0 1011881
09:00+5w5891100 0.1 1012862
12:00+6wnw6988100 0.1 1013996
15:00+6nw71187100 0.2 1016936
18:00+6nnw61287100 0.0 10181026
21:00+6nnw41184100 0.0 1020909
10 may, mon
mon1000:00+5nnw5138497 0.0 1020563
03:00+5n61486100 0.0 1021827
06:00+5n71582100 0.0 1022921
09:00+7nne81680100 0.0 1022902
12:00+7n91788100 0.7 1021640
15:00+11nne8157670 0.7 1022836
18:00+12nne101778100 0.0 1020699
21:00+10nne71686100 0.0 1022580
11 may, tue
tue1100:00+10nne61690100 0.0 1022567
03:00+9nne7169593 0.0 1021454
06:00+9nne7179275 0.0 1021528
09:00+14ene71481100 0.0 1022793
12:00+11se5785100 0.2 1024453
15:00+16e47627 0.2 10241118
18:00+16se24605 0.0 1024655
21:00+10nw2279100 0.0 102414